カタログに戻る

SL-12 R/B(2)

運用中MEO
NORAD 23208·ROCKET BODY·🇷🇺 Russia

打ち上げ Aug 11, 1994 から Baikonur Cosmodrome

Loading…

次のパス (今後24時間)

TLE

最新Source: Space-Track

元期: Sep 11, 2026, 14:50 UTC

1 23208U 94050F   26254.61860235 -.00000002  00000-0  00000-0 0  9996
2 23208  65.4234 198.0351 0038771 200.3760 338.5612  2.13430658250098

AllMySatでSL-12 R/B(2)をリアルタイム追跡

Download on the App Store